When you browse on this site, cookies collect data to enhance your experience and personalize the content and advertising you see.
Visit our Privacy Policy to learn more. By continuing to use the site, you agree to this use of cookies and data.
  • In Spain
  • List of Countries
  • For 7 days
  • Water Temperature
  • Weather Map
  • Weather Widgets
  • user-avatar
    Login

    Hourly Weather Debricy

    Today, 20 October, Sunday

    Time Temperature Precipitation Wind Pressure Humidity
    00:00 +12°C° 0.4 mm 2 mps 745 mmHg 94%
    01:00 +13°C° 0.4 mm 2 mps 745 mmHg 94%
    02:00 +13°C° 0 mm 2 mps 745 mmHg 91%
    03:00 +12°C° 0.2 mm 2 mps 746 mmHg 91%
    04:00 +12°C° 0.2 mm 2 mps 746 mmHg 90%
    05:00 +10°C° 0.2 mm 2 mps 746 mmHg 89%
    06:00 +12°C° 0 mm 2 mps 746 mmHg 88%
    07:00 +12°C° 0 mm 2 mps 746 mmHg 87%
    08:00 +12°C° 0 mm 2 mps 746 mmHg 87%
    09:00 +13°C° 0 mm 2 mps 746 mmHg 84%
    10:00 +13°C° 0 mm 2 mps 746 mmHg 82%
    11:00 +14°C° 0 mm 2 mps 746 mmHg 79%
    12:00 +15°C° 0 mm 2 mps 746 mmHg 78%
    13:00 +15°C° 0 mm 2 mps 746 mmHg 77%
    14:00 +16°C° 0 mm 2 mps 746 mmHg 76%
    15:00 +15°C° 0 mm 2 mps 746 mmHg 79%
    16:00 +14°C° 0 mm 2 mps 746 mmHg 83%
    17:00 +14°C° 0 mm 2 mps 746 mmHg 86%
    18:00 +13°C° 0 mm 2 mps 746 mmHg 87%
    19:00 +13°C° 0 mm 2 mps 746 mmHg 87%
    20:00 +13°C° 0 mm 2 mps 746 mmHg 88%
    21:00 +13°C° 0 mm 2 mps 746 mmHg 88%
    22:00 +13°C° 0 mm 2 mps 746 mmHg 87%
    23:00 +13°C° 0 mm 2 mps 746 mmHg 86%

    Tomorrow, 21 October, Monday

    Time Temperature Precipitation Wind Pressure Humidity
    00:00 +11°C° 0 mm 3 mps 746 mmHg 88%
    01:00 +11°C° 0 mm 3 mps 746 mmHg 89%
    02:00 +10°C° 0 mm 3 mps 746 mmHg 91%
    03:00 +10°C° 0 mm 3 mps 746 mmHg 92%
    04:00 +10°C° 0 mm 3 mps 745 mmHg 92%
    05:00 +10°C° 0 mm 3 mps 745 mmHg 93%
    06:00 +10°C° 0 mm 3 mps 745 mmHg 92%
    07:00 +11°C° 0 mm 3 mps 746 mmHg 91%
    08:00 +11°C° 0 mm 3 mps 746 mmHg 90%
    09:00 +12°C° 0 mm 3 mps 746 mmHg 87%
    10:00 +13°C° 0 mm 3 mps 746 mmHg 83%
    11:00 +14°C° 0 mm 3 mps 746 mmHg 80%
    12:00 +14°C° 0 mm 3 mps 746 mmHg 80%
    13:00 +16°C° 0 mm 3 mps 746 mmHg 79%
    14:00 +16°C° 0 mm 3 mps 746 mmHg 78%
    15:00 +14°C° 0 mm 3 mps 746 mmHg 83%
    16:00 +15°C° 0 mm 2 mps 747 mmHg 87%
    17:00 +14°C° 0 mm 2 mps 747 mmHg 92%
    18:00 +13°C° 0 mm 2 mps 747 mmHg 92%
    19:00 +13°C° 0 mm 2 mps 748 mmHg 92%
    20:00 +12°C° 0 mm 2 mps 748 mmHg 92%
    21:00 +12°C° 0 mm 2 mps 748 mmHg 92%
    22:00 +10°C° 0 mm 2 mps 748 mmHg 93%
    23:00 +10°C° 0 mm 1 mps 749 mmHg 93%

    Day after tomorrow, 22 October, Tuesday

    Time Temperature Precipitation Wind Pressure Humidity
    00:00 +10°C° 0 mm 1 mps 749 mmHg 94%
    01:00 +9°C° 0 mm 1 mps 749 mmHg 95%
    02:00 +9°C° 0 mm 1 mps 750 mmHg 96%
    03:00 +8°C° 0 mm 1 mps 750 mmHg 95%
    04:00 +8°C° 0 mm 1 mps 750 mmHg 95%
    05:00 +7°C° 0 mm 1 mps 750 mmHg 95%
    06:00 +8°C° 0 mm 1 mps 750 mmHg 94%
    07:00 +7°C° 0 mm 0 mps 751 mmHg 93%
    08:00 +7°C° 0 mm 0 mps 751 mmHg 91%
    09:00 +10°C° 0 mm 1 mps 751 mmHg 86%
    10:00 +11°C° 0 mm 1 mps 751 mmHg 80%
    11:00 +13°C° 0 mm 1 mps 751 mmHg 75%
    12:00 +13°C° 0 mm 2 mps 751 mmHg 75%
    13:00 +13°C° 0 mm 2 mps 750 mmHg 74%
    14:00 +14°C° 0 mm 2 mps 750 mmHg 74%
    15:00 +13°C° 0 mm 2 mps 750 mmHg 78%
    16:00 +12°C° 0 mm 2 mps 750 mmHg 83%
    17:00 +10°C° 0 mm 2 mps 749 mmHg 87%
    18:00 +10°C° 0 mm 3 mps 749 mmHg 88%
    19:00 +10°C° 0 mm 3 mps 749 mmHg 89%
    20:00 +10°C° 0 mm 3 mps 749 mmHg 90%
    21:00 +10°C° 0 mm 3 mps 749 mmHg 91%
    22:00 +10°C° 0 mm 3 mps 748 mmHg 93%
    23:00 +10°C° 0 mm 3 mps 748 mmHg 94%

    23 October, Wednesday

    Time Temperature Precipitation Wind Pressure Humidity
    00:00 +10°C° 0 mm 4 mps 748 mmHg 94%
    01:00 +10°C° 0 mm 4 mps 747 mmHg 94%
    02:00 +10°C° 0 mm 4 mps 747 mmHg 94%
    03:00 +10°C° 0 mm 3 mps 747 mmHg 94%
    04:00 +10°C° 0 mm 3 mps 747 mmHg 95%
    05:00 +9°C° 0 mm 3 mps 746 mmHg 95%
    06:00 +10°C° 0 mm 3 mps 746 mmHg 95%
    07:00 +10°C° 0 mm 3 mps 746 mmHg 95%
    08:00 +10°C° 0 mm 3 mps 746 mmHg 95%
    09:00 +11°C° 0 mm 3 mps 746 mmHg 91%
    10:00 +12°C° 0 mm 3 mps 745 mmHg 87%
    11:00 +13°C° 0 mm 3 mps 745 mmHg 84%
    12:00 +14°C° 0 mm 3 mps 745 mmHg 84%
    13:00 +15°C° 0 mm 2 mps 745 mmHg 84%
    14:00 +15°C° 0 mm 2 mps 745 mmHg 84%
    15:00 +14°C° 0 mm 2 mps 745 mmHg 85%
    16:00 +14°C° 0 mm 2 mps 745 mmHg 87%
    17:00 +13°C° 0 mm 2 mps 745 mmHg 88%
    18:00 +13°C° 0 mm 2 mps 745 mmHg 87%
    19:00 +11°C° 0 mm 3 mps 746 mmHg 86%
    20:00 +10°C° 0 mm 3 mps 746 mmHg 85%
    21:00 +10°C° 0 mm 2 mps 746 mmHg 83%
    22:00 +10°C° 0 mm 2 mps 746 mmHg 81%
    23:00 +10°C° 0 mm 2 mps 746 mmHg 80%

    24 October, Thursday

    Time Temperature Precipitation Wind Pressure Humidity
    00:00 +9°C° 0 mm 2 mps 746 mmHg 83%
    01:00 +8°C° 0 mm 2 mps 746 mmHg 86%
    02:00 +7°C° 0 mm 2 mps 747 mmHg 89%
    03:00 +7°C° 0 mm 2 mps 747 mmHg 91%
    04:00 +6°C° 0 mm 2 mps 747 mmHg 93%
    05:00 +6°C° 0 mm 2 mps 747 mmHg 94%
    06:00 +7°C° 0 mm 1 mps 747 mmHg 93%
    07:00 +7°C° 0 mm 1 mps 747 mmHg 92%
    08:00 +7°C° 0 mm 1 mps 747 mmHg 91%
    09:00 +8°C° 0 mm 1 mps 747 mmHg 85%
    10:00 +9°C° 0 mm 1 mps 747 mmHg 79%
    11:00 +11°C° 0 mm 1 mps 747 mmHg 73%
    12:00 +11°C° 0 mm 1 mps 747 mmHg 72%
    13:00 +11°C° 0 mm 1 mps 747 mmHg 70%
    14:00 +12°C° 0 mm 1 mps 747 mmHg 68%
    15:00 +11°C° 0 mm 1 mps 747 mmHg 73%
    16:00 +9°C° 0 mm 0 mps 747 mmHg 78%
    17:00 +8°C° 0 mm 0 mps 747 mmHg 82%
    18:00 +7°C° 0 mm 0 mps 747 mmHg 84%
    19:00 +7°C° 0 mm 0 mps 747 mmHg 86%
    20:00 +7°C° 0 mm 0 mps 747 mmHg 88%
    21:00 +6°C° 0 mm 0 mps 747 mmHg 88%
    22:00 +7°C° 0 mm 1 mps 748 mmHg 89%
    23:00 +7°C° 0 mm 1 mps 748 mmHg 90%

    25 October, Friday

    Time Temperature Precipitation Wind Pressure Humidity
    00:00 +7°C° 0 mm 1 mps 748 mmHg 91%
    01:00 +7°C° 0 mm 1 mps 748 mmHg 91%
    02:00 +6°C° 0 mm 1 mps 748 mmHg 92%
    03:00 +6°C° 0 mm 1 mps 747 mmHg 92%
    04:00 +6°C° 0 mm 1 mps 747 mmHg 93%
    05:00 +6°C° 0 mm 1 mps 747 mmHg 93%
    06:00 +7°C° 0 mm 1 mps 747 mmHg 94%
    07:00 +6°C° 0 mm 2 mps 747 mmHg 94%
    08:00 +6°C° 0 mm 2 mps 747 mmHg 94%
    09:00 +8°C° 0 mm 2 mps 747 mmHg 90%
    10:00 +9°C° 0 mm 2 mps 747 mmHg 86%
    11:00 +11°C° 0 mm 3 mps 747 mmHg 81%
    12:00 +12°C° 0 mm 3 mps 747 mmHg 80%
    13:00 +12°C° 0 mm 3 mps 746 mmHg 79%
    14:00 +13°C° 0 mm 3 mps 746 mmHg 78%
    15:00 +12°C° 0 mm 3 mps 746 mmHg 83%
    16:00 +11°C° 0 mm 3 mps 746 mmHg 87%
    17:00 +10°C° 0 mm 3 mps 746 mmHg 92%
    18:00 +10°C° 0 mm 3 mps 746 mmHg 92%
    19:00 +9°C° 0 mm 3 mps 746 mmHg 93%
    20:00 +9°C° 0 mm 3 mps 746 mmHg 93%
    21:00 +9°C° 0 mm 3 mps 746 mmHg 93%
    22:00 +9°C° 0 mm 3 mps 746 mmHg 94%
    23:00 +8°C° 0 mm 3 mps 746 mmHg 94%
    Show more